| time (UTC) | temp F | wind direction | speed MPH | gust MPH | rain 1hr in | rain 24hr in | rain mn in | humidity % | barometer mb |
| 20260504034505 | 48 | 202 | 1.0 | 4.0 | 0.00 | 0.00 | 0.00 | 64 | 1015.9 |
| 20260504034005 | 48 | 207 | 1.0 | 6.0 | 0.00 | 0.00 | 0.00 | 64 | 1015.8 |
| 20260504033506 | 48 | 205 | 1.0 | 6.0 | 0.00 | 0.00 | 0.00 | 63 | 1015.7 |
| 20260504033007 | 48 | 236 | 1.0 | 4.0 | 0.00 | 0.00 | 0.00 | 63 | 1015.7 |
| 20260504032507 | 48 | 236 | 1.0 | 2.0 | 0.00 | 0.00 | 0.00 | 63 | 1015.7 |
| 20260504031505 | 48 | 236 | 1.0 | 3.0 | 0.00 | 0.00 | 0.00 | 64 | 1015.7 |
| 20260504031006 | 48 | 236 | 1.0 | 3.0 | 0.00 | 0.00 | 0.00 | 64 | 1015.7 |
| 20260504030505 | 48 | 236 | 1.0 | 4.0 | 0.00 | 0.00 | 0.00 | 64 | 1015.7 |
| 20260504030006 | 47 | 236 | 1.0 | 4.0 | 0.00 | 0.00 | 0.00 | 65 | 1015.7 |
| 20260504025006 | 47 | 263 | 1.0 | 3.0 | 0.00 | 0.00 | 0.00 | 66 | 1015.7 |
| 20260504024504 | 46 | 265 | 1.0 | 3.0 | 0.00 | 0.00 | 0.00 | 66 | 1015.7 |
| 20260504024004 | 45 | 344 | 0.0 | 2.0 | 0.00 | 0.00 | 0.00 | 68 | 1015.7 |
| 20260504023005 | 45 | 344 | 0.0 | 1.0 | 0.00 | 0.00 | 0.00 | 69 | 1015.7 |
| 20260504022504 | 45 | 344 | 0.0 | 1.0 | 0.00 | 0.00 | 0.00 | 70 | 1015.7 |
| 20260504022006 | 45 | 344 | 0.0 | 2.0 | 0.00 | 0.00 | 0.00 | 69 | 1015.7 |
| 20260504021505 | 45 | 344 | 0.0 | 2.0 | 0.00 | 0.00 | 0.00 | 66 | 1015.7 |
| 20260504020008 | 45 | 344 | 0.0 | 2.0 | 0.00 | 0.00 | 0.00 | 67 | 1015.6 |
| 20260504015504 | 46 | 344 | 0.0 | 1.0 | 0.00 | 0.00 | 0.00 | 68 | 1015.5 |
| 20260504015006 | 46 | 344 | 0.0 | 1.0 | 0.00 | 0.00 | 0.00 | 65 | 1015.5 |
| 20260504014504 | 47 | 344 | 1.0 | 2.0 | 0.00 | 0.00 | 0.00 | 66 | 1015.5 |
| 20260504014005 | 47 | 344 | 0.0 | 2.0 | 0.00 | 0.00 | 0.00 | 64 | 1015.5 |
| 20260504013504 | 47 | 344 | 0.0 | 1.0 | 0.00 | 0.00 | 0.00 | 64 | 1015.4 |
| 20260504013006 | 47 | 344 | 1.0 | 2.0 | 0.00 | 0.00 | 0.00 | 64 | 1015.3 |
| 20260504012005 | 47 | 344 | 0.0 | 2.0 | 0.00 | 0.00 | 0.00 | 64 | 1015.3 |
| 20260504011005 | 48 | 344 | 0.0 | 1.0 | 0.00 | 0.00 | 0.00 | 64 | 1015.2 |
| 20260504010504 | 49 | 344 | 0.0 | 1.0 | 0.00 | 0.00 | 0.00 | 63 | 1015.2 |
| 20260504010006 | 49 | 344 | 0.0 | 1.0 | 0.00 | 0.00 | 0.00 | 61 | 1015.1 |
| 20260504005503 | 49 | 344 | 0.0 | 1.0 | 0.00 | 0.00 | 0.00 | 61 | 1015.1 |
| 20260504005004 | 50 | 344 | 1.0 | 2.0 | 0.00 | 0.00 | 0.00 | 60 | 1015.0 |
| 20260504004504 | 50 | 344 | 1.0 | 2.0 | 0.00 | 0.00 | 0.00 | 60 | 1015.0 |
| 20260504004004 | 50 | 344 | 0.0 | 1.0 | 0.00 | 0.00 | 0.00 | 57 | 1015.0 |
| 20260504003503 | 50 | 344 | 0.0 | 1.0 | 0.00 | 0.00 | 0.00 | 58 | 1014.8 |
| 20260504003005 | 50 | 344 | 0.0 | 1.0 | 0.00 | 0.00 | 0.00 | 58 | 1014.7 |
| 20260504002503 | 51 | 344 | 0.0 | 2.0 | 0.00 | 0.00 | 0.00 | 55 | 1014.6 |
| 20260504002004 | 51 | 344 | 0.0 | 3.0 | 0.00 | 0.00 | 0.00 | 55 | 1014.5 |
| 20260504001504 | 51 | 344 | 0.0 | 3.0 | 0.00 | 0.00 | 0.00 | 56 | 1014.5 |
| 20260504001004 | 52 | 344 | 0.0 | 2.0 | 0.00 | 0.00 | 0.00 | 52 | 1014.5 |
| 20260503235503 | 54 | 344 | 0.0 | 1.0 | 0.00 | 0.00 | 0.00 | 48 | 1014.4 |
| 20260503235004 | 55 | 344 | 0.0 | 1.0 | 0.00 | 0.00 | 0.00 | 47 | 1014.4 |
| 20260503234503 | 55 | 344 | 1.0 | 3.0 | 0.00 | 0.00 | 0.00 | 44 | 1014.4 |
| 20260503234005 | 56 | 346 | 1.0 | 6.0 | 0.00 | 0.00 | 0.00 | 45 | 1014.3 |
| 20260503233504 | 56 | 346 | 1.0 | 6.0 | 0.00 | 0.00 | 0.00 | 45 | 1014.4 |
| 20260503233006 | 57 | 351 | 2.0 | 6.0 | 0.00 | 0.00 | 0.00 | 43 | 1014.3 |
| 20260503232503 | 57 | 355 | 2.0 | 6.0 | 0.00 | 0.00 | 0.00 | 44 | 1014.3 |
| 20260503232004 | 57 | 349 | 2.0 | 5.0 | 0.00 | 0.00 | 0.00 | 43 | 1014.3 |
| 20260503231504 | 57 | 349 | 3.0 | 9.0 | 0.00 | 0.00 | 0.00 | 43 | 1014.2 |
| 20260503231004 | 58 | 265 | 3.0 | 12.0 | 0.00 | 0.00 | 0.00 | 42 | 1014.2 |
| 20260503230006 | 58 | 320 | 2.0 | 8.0 | 0.00 | 0.00 | 0.00 | 43 | 1014.1 |
| 20260503225503 | 58 | 338 | 3.0 | 8.0 | 0.00 | 0.00 | 0.00 | 40 | 1014.1 |
| 20260503225005 | 58 | 309 | 3.0 | 13.0 | 0.00 | 0.00 | 0.00 | 41 | 1014.0 |
| 20260503224503 | 58 | 346 | 4.0 | 13.0 | 0.00 | 0.00 | 0.00 | 40 | 1014.1 |
| 20260503224004 | 58 | 329 | 4.0 | 13.0 | 0.00 | 0.00 | 0.00 | 41 | 1014.0 |
| 20260503223504 | 58 | 312 | 4.0 | 15.0 | 0.00 | 0.00 | 0.00 | 40 | 1014.1 |
| 20260503223005 | 58 | 297 | 6.0 | 17.0 | 0.00 | 0.00 | 0.00 | 39 | 1014.0 |
| 20260503222004 | 59 | 286 | 7.0 | 15.0 | 0.00 | 0.00 | 0.00 | 38 | 1013.9 |
| 20260503221503 | 59 | 341 | 7.0 | 18.0 | 0.00 | 0.00 | 0.00 | 39 | 1014.1 |
| 20260503221004 | 59 | 336 | 7.0 | 18.0 | 0.00 | 0.00 | 0.00 | 39 | 1014.1 |
| 20260503220008 | 59 | 307 | 7.0 | 19.0 | 0.00 | 0.00 | 0.00 | 38 | 1014.2 |
| 20260503215004 | 59 | 219 | 4.0 | 17.0 | 0.00 | 0.00 | 0.00 | 38 | 1014.0 |
| 20260503214503 | 59 | 321 | 6.0 | 17.0 | 0.00 | 0.00 | 0.00 | 39 | 1014.0 |
| 20260503214004 | 59 | 205 | 7.0 | 17.0 | 0.00 | 0.00 | 0.00 | 39 | 1014.0 |
| 20260503213503 | 59 | 316 | 7.0 | 17.0 | 0.00 | 0.00 | 0.00 | 40 | 1014.0 |
| 20260503213005 | 60 | 17 | 6.0 | 16.0 | 0.00 | 0.00 | 0.00 | 40 | 1013.9 |
| 20260503212503 | 60 | 324 | 5.0 | 12.0 | 0.00 | 0.00 | 0.00 | 40 | 1013.9 |
| 20260503212003 | 60 | 329 | 5.0 | 14.0 | 0.00 | 0.00 | 0.00 | 38 | 1014.0 |
| 20260503211503 | 60 | 254 | 9.0 | 23.0 | 0.00 | 0.00 | 0.00 | 38 | 1013.8 |
| 20260503211004 | 60 | 348 | 12.0 | 23.0 | 0.00 | 0.00 | 0.00 | 37 | 1013.8 |
| 20260503210504 | 59 | 360 | 10.0 | 20.0 | 0.00 | 0.00 | 0.00 | 37 | 1013.9 |
| 20260503210006 | 59 | 360 | 10.0 | 20.0 | 0.00 | 0.00 | 0.00 | 36 | 1013.9 |
| 20260503205004 | 60 | 346 | 7.0 | 17.0 | 0.00 | 0.00 | 0.00 | 37 | 1013.9 |
| 20260503204503 | 60 | 247 | 7.0 | 21.0 | 0.00 | 0.00 | 0.00 | 38 | 1013.9 |
| 20260503204004 | 60 | 346 | 7.0 | 21.0 | 0.00 | 0.00 | 0.00 | 36 | 1013.8 |
| 20260503203504 | 60 | 327 | 6.0 | 20.0 | 0.00 | 0.00 | 0.00 | 36 | 1013.9 |
| 20260503203005 | 60 | 250 | 6.0 | 18.0 | 0.00 | 0.00 | 0.00 | 38 | 1013.9 |
| 20260503202503 | 60 | 282 | 8.0 | 22.0 | 0.00 | 0.00 | 0.00 | 34 | 1013.9 |
| 20260503202004 | 61 | 313 | 7.0 | 20.0 | 0.00 | 0.00 | 0.00 | 38 | 1013.9 |
| 20260503201505 | 60 | 293 | 6.0 | 16.0 | 0.00 | 0.00 | 0.00 | 37 | 1014.1 |
| 20260503201005 | 60 | 309 | 6.0 | 16.0 | 0.00 | 0.00 | 0.00 | 36 | 1014.0 |
| 20260503200006 | 60 | 260 | 6.0 | 15.0 | 0.00 | 0.00 | 0.00 | 39 | 1014.0 |
| 20260503195504 | 60 | 334 | 7.0 | 20.0 | 0.00 | 0.00 | 0.00 | 39 | 1014.1 |
| 20260503195006 | 61 | 279 | 6.0 | 20.0 | 0.00 | 0.00 | 0.00 | 39 | 1014.2 |
| 20260503194005 | 60 | 252 | 8.0 | 22.0 | 0.00 | 0.00 | 0.00 | 37 | 1014.2 |
| 20260503193005 | 60 | 355 | 7.0 | 19.0 | 0.00 | 0.00 | 0.00 | 39 | 1014.2 |
| 20260503192503 | 60 | 315 | 6.0 | 19.0 | 0.00 | 0.00 | 0.00 | 37 | 1014.2 |
| 20260503192005 | 60 | 355 | 6.0 | 18.0 | 0.00 | 0.00 | 0.00 | 39 | 1014.2 |
| 20260503191504 | 59 | 320 | 7.0 | 18.0 | 0.00 | 0.00 | 0.00 | 41 | 1014.3 |
| 20260503185502 | 59 | 334 | 9.0 | 20.0 | 0.00 | 0.00 | 0.00 | 41 | 1014.5 |
| 20260503185003 | 59 | 355 | 9.0 | 16.0 | 0.00 | 0.00 | 0.00 | 38 | 1014.4 |
| 20260503184501 | 58 | 355 | 10.0 | 16.0 | 0.00 | 0.00 | 0.00 | 37 | 1014.3 |
| 20260503184004 | 58 | 327 | 10.0 | 23.0 | 0.00 | 0.00 | 0.00 | 38 | 1014.4 |
| 20260503183502 | 59 | 351 | 8.0 | 23.0 | 0.00 | 0.00 | 0.00 | 36 | 1014.7 |
| 20260503182503 | 58 | 331 | 9.0 | 22.0 | 0.00 | 0.00 | 0.00 | 39 | 1014.7 |
| 20260503182006 | 58 | 334 | 8.0 | 22.0 | 0.00 | 0.00 | 0.00 | 40 | 1014.9 |
| 20260503181504 | 60 | 319 | 7.0 | 15.0 | 0.00 | 0.00 | 0.00 | 42 | 1014.6 |
| 20260503180502 | 59 | 309 | 7.0 | 20.0 | 0.00 | 0.00 | 0.00 | 40 | 1014.6 |
| 20260503180005 | 58 | 351 | 6.0 | 15.0 | 0.00 | 0.00 | 0.00 | 46 | 1014.6 |
| 20260503175502 | 58 | 339 | 7.0 | 16.0 | 0.00 | 0.00 | 0.00 | 45 | 1014.7 |
| 20260503175004 | 58 | 336 | 8.0 | 18.0 | 0.00 | 0.00 | 0.00 | 42 | 1014.6 |
| 20260503174503 | 57 | 323 | 9.0 | 18.0 | 0.00 | 0.00 | 0.00 | 44 | 1014.7 |
| 20260503174005 | 58 | 300 | 9.0 | 18.0 | 0.00 | 0.00 | 0.00 | 45 | 1014.6 |
| 20260503173502 | 57 | 341 | 8.0 | 19.0 | 0.00 | 0.00 | 0.00 | 41 | 1014.5 |
| 20260503173005 | 57 | 330 | 9.0 | 19.0 | 0.00 | 0.00 | 0.00 | 44 | 1014.8 |
| 20260503172502 | 56 | 336 | 9.0 | 18.0 | 0.00 | 0.00 | 0.00 | 43 | 1014.7 |
| 20260503171503 | 57 | 317 | 10.0 | 21.0 | 0.00 | 0.00 | 0.00 | 41 | 1014.8 |
| 20260503171003 | 57 | 309 | 8.0 | 21.0 | 0.00 | 0.00 | 0.00 | 44 | 1014.8 |
| 20260503170503 | 57 | 322 | 7.0 | 23.0 | 0.00 | 0.00 | 0.00 | 44 | 1014.7 |
| 20260503151004 | 52 | 336 | 7.0 | 16.0 | 0.00 | 0.00 | 0.00 | 52 | 1015.1 |
| 20260503131002 | 48 | 334 | 7.0 | 15.0 | 0.00 | 0.00 | 0.00 | 63 | 1015.3 |
| 20260503130502 | 48 | 330 | 8.0 | 16.0 | 0.00 | 0.00 | 0.00 | 63 | 1015.3 |
| 20260503110504 | 44 | 324 | 3.0 | 11.0 | 0.00 | 0.00 | 0.00 | 72 | 1013.9 |
| 20260503090500 | 43 | 323 | 2.0 | 5.0 | 0.00 | 0.00 | 0.00 | 73 | 1012.4 |
| 20260503081500 | 44 | 298 | 2.0 | 9.0 | 0.00 | 0.00 | 0.00 | 71 | 1012.0 |
| 20260503081002 | 44 | 248 | 2.0 | 9.0 | 0.00 | 0.00 | 0.00 | 71 | 1012.0 |
| 20260503080501 | 44 | 292 | 1.0 | 5.0 | 0.00 | 0.00 | 0.00 | 71 | 1012.0 |
| 20260503072500 | 45 | 315 | 3.0 | 10.0 | 0.00 | 0.00 | 0.00 | 69 | 1011.6 |
| 20260503072001 | 45 | 316 | 3.0 | 10.0 | 0.00 | 0.00 | 0.00 | 68 | 1011.5 |
| 20260503071501 | 45 | 323 | 3.0 | 9.0 | 0.00 | 0.00 | 0.00 | 69 | 1011.5 |
| 20260503071001 | 46 | 323 | 2.0 | 9.0 | 0.00 | 0.00 | 0.00 | 68 | 1011.5 |
| 20260503070501 | 46 | 329 | 2.0 | 5.0 | 0.00 | 0.00 | 0.00 | 68 | 1011.5 |
| 20260503054500 | 50 | 334 | 4.0 | 9.0 | 0.00 | 0.00 | 0.00 | 60 | 1011.3 |
| 20260503054001 | 49 | 346 | 4.0 | 9.0 | 0.00 | 0.00 | 0.00 | 62 | 1011.4 |
| 20260503053459 | 50 | 323 | 4.0 | 9.0 | 0.00 | 0.00 | 0.00 | 61 | 1011.4 |
| 20260503053000 | 50 | 336 | 4.0 | 9.0 | 0.00 | 0.00 | 0.00 | 60 | 1011.4 |
| 20260503052500 | 50 | 334 | 4.0 | 9.0 | 0.00 | 0.00 | 0.00 | 60 | 1011.5 |
| 20260503052001 | 51 | 317 | 5.0 | 9.0 | 0.00 | 0.00 | 0.00 | 58 | 1011.4 |
| 20260503051500 | 51 | 329 | 5.0 | 9.0 | 0.00 | 0.00 | 0.00 | 58 | 1011.3 |
| 20260503051001 | 51 | 322 | 4.0 | 9.0 | 0.00 | 0.00 | 0.00 | 57 | 1011.3 |
| 20260503050459 | 52 | 346 | 4.0 | 8.0 | 0.00 | 0.00 | 0.00 | 57 | 1011.4 |
| 20260503050007 | 52 | 355 | 3.0 | 8.0 | 0.00 | 0.00 | 0.00 | 58 | 1011.5 |
| 20260503045505 | 52 | 5 | 4.0 | 8.0 | 0.00 | 0.00 | 0.00 | 56 | 1011.3 |
| 20260503045005 | 52 | 17 | 4.0 | 9.0 | 0.00 | 0.00 | 0.00 | 55 | 1011.4 |
| 20260503044506 | 52 | 360 | 5.0 | 11.0 | 0.00 | 0.00 | 0.00 | 56 | 1011.4 |
| 20260503044005 | 52 | 327 | 4.0 | 11.0 | 0.00 | 0.00 | 0.00 | 55 | 1011.5 |
| 20260503043506 | 52 | 346 | 4.0 | 9.0 | 0.00 | 0.00 | 0.00 | 55 | 1011.5 |
| 20260503043005 | 52 | 327 | 5.0 | 9.0 | 0.00 | 0.00 | 0.00 | 55 | 1011.6 |
| 20260503042505 | 52 | 355 | 5.0 | 12.0 | 0.00 | 0.00 | 0.00 | 56 | 1011.6 |
| 20260503042005 | 53 | 322 | 6.0 | 12.0 | 0.00 | 0.00 | 0.00 | 54 | 1011.7 |
| 20260503041506 | 53 | 344 | 5.0 | 11.0 | 0.00 | 0.00 | 0.00 | 55 | 1011.6 |
| 20260503041006 | 53 | 336 | 4.0 | 10.0 | 0.00 | 0.00 | 0.00 | 55 | 1011.6 |
| 20260503040505 | 52 | 333 | 3.0 | 12.0 | 0.00 | 0.00 | 0.00 | 56 | 1011.5 |
| 20260503040010 | 52 | 320 | 3.0 | 12.0 | 0.00 | 0.00 | 0.00 | 56 | 1011.7 |
| 20260503035504 | 52 | 331 | 3.0 | 8.0 | 0.00 | 0.00 | 0.00 | 58 | 1011.8 |
| 20260503035006 | 52 | 318 | 3.0 | 8.0 | 0.00 | 0.00 | 0.00 | 57 | 1011.8 |